Location: Dal�� Lhota
(48.7500°N, 14.0167°E)
Time: 16:53:43
(UTC+00:00)

Vanguard 3 - Pass Details

Date: 09 August 2021
Orbit: 510 x 3260 km, 33.3° (Epoch: 20 September)

Event Time Altitude Azimuth Distance (km) Brightness Sun altitude
Rises 19:07:23 0° 267° (W) 5,715 12.5 -6.3°
Reaches altitude 10° 19:11:08 10° 259° (W) 5,051 11.9 -6.9°
Maximum altitude 19:24:37 36° 201° (SSW) 4,156 10.6 -8.7°
Drops below altitude 10° 19:41:15 10° 145° (SE) 6,168 11.0 -10.9°
Enters shadow 19:41:27 10° 145° (SE) 6,201 11.0 -10.9°
Sets 19:46:32 0° 138° (SE) 7,076 - -11.5°
